Weather History for Olean, NY

Change the Weather History Date:

Saturday, January 11, 2014

  Actual Average (KBFD) Record (KBFD)
Temperature  
Mean Temperature 38 °F 21 °F  
Max Temperature 44 °F 29 °F 53 °F (1975)
Min Temperature 30 °F 13 °F -24 °F (1979)
Degree Days  
Heating Degree Days 27 38  
Month to date heating degree days 418  
Since 1 July heating degree days 3474  
Cooling Degree Days 0 0  
Month to date cooling degree days 0  
Year to date cooling degree days 0  
Moisture  
Dew Point 38 °F    
Average Humidity 98    
Maximum Humidity 100    
Minimum Humidity 81    
Precipitation  
Precipitation 0.00 in 0.11 in 1.22 in (1991)
Month to date precipitation 1.24  
Year to date precipitation 1.24  
Sea Level Pressure  
Sea Level Pressure 29.51 in    
Wind  
Wind Speed 11 mph (SW)    
Max Wind Speed 15 mph    
Max Gust Speed 30 mph    
Visibility 5 miles    
Events Fog , Rain , Snow    
T = Trace of Precipitation, MM = Missing Value Source: NWS Daily Summary

Daily Weather History Graph

Daily Weather History Graph

Search for Another Location

Airport:

Trip Planner

Search our weather history database for the weather conditions in past years. The results will help you decide how hot, cold, wet, or windy it might be!

Date:

Astronomy

Jan. 11, 2014 Rise Set
Actual Time 7:41 AM EST 5:01 PM EST
Civil Twilight 7:10 AM EST 5:33 PM EST
Nautical Twilight 6:35 AM EST 6:08 PM EST
Astronomical Twilight 6:01 AM EST 6:41 PM EST
Moon 1:45 PM EST (1/11) 3:43 AM EST (1/11)
Length of Visible Light 10h 23m
Length of Day
9h 20m
Waxing Gibbous, 83% of the Moon is Illuminated
Jan 11
Waxing Gibbous
Jan 15
Full
Jan 24
Last Quarter
Jan 30
New
Feb 6
First Quarter

Hourly Weather History & Observations

Time (EST) Temp. Windchill Dew Point Humidity Pressure Visibility Wind Dir Wind Speed Gust Speed Precip Events Conditions
12:15 AM 35.6 °F 26.2 °F 35.6 °F 100% 29.89 in 2.0 mi South 15.0 mph 23.0 mph N/A   Overcast
12:35 AM 35.6 °F 27.1 °F 35.6 °F 100% 29.88 in 2.0 mi South 12.7 mph 19.6 mph N/A   Overcast
12:55 AM 35.6 °F 27.1 °F 35.6 °F 100% 29.86 in 2.5 mi South 12.7 mph 21.9 mph N/A   Overcast
1:15 AM 35.6 °F 26.6 °F 35.6 °F 100% 29.83 in 2.0 mi South 13.8 mph 19.6 mph N/A   Overcast
1:35 AM 35.6 °F 27.1 °F 35.6 °F 100% 29.83 in 2.0 mi South 12.7 mph 26.5 mph N/A   Light Drizzle
1:55 AM 35.6 °F 26.6 °F 35.6 °F 100% 29.82 in 1.8 mi South 13.8 mph 17.3 mph N/A   Overcast
2:15 AM 35.6 °F 26.6 °F 35.6 °F 100% 29.81 in 0.8 mi South 13.8 mph 21.9 mph N/A   Overcast
2:35 AM 35.6 °F 27.1 °F 35.6 °F 100% 29.81 in 0.5 mi South 12.7 mph 20.7 mph N/A Fog Fog
2:55 AM 35.6 °F 29.2 °F 35.6 °F 100% 29.79 in 0.8 mi South 8.1 mph 19.6 mph N/A   Overcast
3:15 AM 35.6 °F 28.0 °F 35.6 °F 100% 29.78 in 0.5 mi South 10.4 mph 18.4 mph N/A Fog Fog
3:35 AM 35.6 °F 27.5 °F 35.6 °F 100% 29.76 in 0.8 mi South 11.5 mph 21.9 mph N/A   Overcast
3:55 AM 35.6 °F 27.5 °F 35.6 °F 100% 29.75 in 1.8 mi SSW 11.5 mph 17.3 mph N/A   Overcast
4:15 AM 37.4 °F 29.8 °F 37.4 °F 100% 29.73 in 1.0 mi South 11.5 mph - N/A   Overcast
4:35 AM 37.4 °F 30.3 °F 37.4 °F 100% 29.71 in 2.0 mi South 10.4 mph 18.4 mph N/A   Overcast
4:55 AM 37.4 °F 30.3 °F 37.4 °F 100% 29.70 in 4.0 mi South 10.4 mph 19.6 mph N/A   Overcast
5:15 AM 37.4 °F 29.3 °F 37.4 °F 100% 29.68 in 4.0 mi South 12.7 mph 16.1 mph N/A   Overcast
5:35 AM 37.4 °F 29.3 °F 37.4 °F 100% 29.66 in 7.0 mi South 12.7 mph 16.1 mph N/A   Overcast
5:55 AM 37.4 °F 29.8 °F 37.4 °F 100% 29.66 in 7.0 mi South 11.5 mph 21.9 mph N/A   Overcast
6:15 AM 37.4 °F 29.8 °F 37.4 °F 100% 29.63 in 7.0 mi South 11.5 mph 17.3 mph N/A   Overcast
6:35 AM 37.4 °F 30.8 °F 37.4 °F 100% 29.62 in 7.0 mi South 9.2 mph - N/A   Overcast
6:55 AM 39.2 °F 32.0 °F 39.2 °F 100% 29.61 in 7.0 mi South 11.5 mph 17.3 mph N/A   Overcast
7:15 AM 39.2 °F 33.0 °F 39.2 °F 100% 29.59 in 7.0 mi South 9.2 mph - N/A Rain Light Rain
7:35 AM 41.0 °F 34.7 °F 41.0 °F 100% 29.58 in 7.0 mi South 10.4 mph 20.7 mph N/A Rain Light Rain
7:55 AM 41.0 °F 39.0 °F 41.0 °F 100% 29.58 in 10.0 mi West 3.5 mph 17.3 mph N/A   Overcast
8:15 AM 41.0 °F 39.0 °F 41.0 °F 100% 29.58 in 3.0 mi West 3.5 mph - N/A   Overcast
8:35 AM 39.2 °F - 39.2 °F 100% 29.59 in 0.2 mi Calm Calm - N/A Fog Fog
8:55 AM 41.0 °F 39.0 °F 41.0 °F 100% 29.59 in 0.5 mi WSW 3.5 mph - N/A Rain Light Rain
9:15 AM 42.8 °F 38.0 °F 42.8 °F 100% 29.58 in 2.0 mi SSW 8.1 mph - N/A Rain Heavy Rain
9:35 AM 42.8 °F 38.6 °F 42.8 °F 100% 29.56 in 4.0 mi South 6.9 mph - N/A Rain Rain
9:55 AM 42.8 °F 37.5 °F 42.8 °F 100% 29.57 in 1.0 mi South 9.2 mph - N/A Rain Rain
10:15 AM 42.8 °F 38.0 °F 42.8 °F 100% 29.54 in 1.8 mi South 8.1 mph - N/A Rain Light Rain
10:35 AM 42.8 °F 39.3 °F 42.8 °F 100% 29.54 in 1.0 mi SSW 5.8 mph - N/A Rain Light Rain
10:55 AM 42.8 °F 36.6 °F 42.8 °F 100% 29.52 in 0.5 mi South 11.5 mph - N/A Rain Rain
11:15 AM 42.8 °F 36.6 °F 42.8 °F 100% 29.48 in 3.0 mi SSE 11.5 mph 18.4 mph N/A Rain Light Rain
11:35 AM 44.6 °F 39.7 °F 44.6 °F 100% 29.46 in 5.0 mi South 9.2 mph 17.3 mph N/A Rain Rain
11:55 AM 44.6 °F 40.7 °F 44.6 °F 100% 29.43 in 7.0 mi SSW 6.9 mph 16.1 mph N/A Rain Light Rain
12:15 PM 44.6 °F 40.7 °F 44.6 °F 100% 29.41 in 10.0 mi SSW 6.9 mph - N/A Rain Rain
12:35 PM 44.6 °F 41.4 °F 44.6 °F 100% 29.38 in 10.0 mi South 5.8 mph - N/A Rain Light Rain
12:55 PM 44.6 °F 39.7 °F 44.6 °F 100% 29.34 in 5.0 mi South 9.2 mph 17.3 mph N/A   Light Drizzle
1:15 PM 44.6 °F 39.7 °F 44.6 °F 100% 29.31 in 10.0 mi SSW 9.2 mph 19.6 mph N/A   Overcast
1:35 PM 44.6 °F 38.4 °F 44.6 °F 100% 29.32 in 10.0 mi SSW 12.7 mph 19.6 mph N/A   Overcast
1:55 PM 44.6 °F 38.4 °F 44.6 °F 100% 29.31 in 10.0 mi SSW 12.7 mph 18.4 mph N/A   Overcast
2:15 PM 44.6 °F 39.7 °F 44.6 °F 100% 29.28 in 10.0 mi SSW 9.2 mph 16.1 mph N/A   Overcast
2:35 PM 44.6 °F 38.4 °F 44.6 °F 100% 29.28 in 10.0 mi SSW 12.7 mph - N/A   Overcast
2:55 PM 44.6 °F 39.7 °F 44.6 °F 100% 29.27 in 7.0 mi SSW 9.2 mph 17.3 mph N/A   Overcast
3:15 PM 44.6 °F 38.8 °F 44.6 °F 100% 29.28 in 2.5 mi SSW 11.5 mph 18.4 mph N/A   Heavy Drizzle
3:35 PM 44.6 °F 38.4 °F 44.6 °F 100% 29.28 in 3.0 mi SW 12.7 mph 17.3 mph N/A   Drizzle
3:55 PM 44.6 °F 38.8 °F 44.6 °F 100% 29.28 in 7.0 mi SW 11.5 mph 19.6 mph N/A Rain Light Rain
4:15 PM 44.6 °F 39.2 °F 44.6 °F 100% 29.27 in 7.0 mi SW 10.4 mph 16.1 mph N/A Rain Rain
4:35 PM 44.6 °F 39.7 °F 44.6 °F 100% 29.29 in 7.0 mi WSW 9.2 mph 18.4 mph N/A Rain Light Rain
4:55 PM 44.6 °F 38.8 °F 41.0 °F 87% 29.28 in 7.0 mi WSW 11.5 mph 29.9 mph N/A Rain Light Rain
5:15 PM 42.8 °F 36.2 °F 41.0 °F 93% 29.30 in 7.0 mi West 12.7 mph 27.6 mph N/A Rain Light Rain
5:35 PM 39.2 °F 31.2 °F 37.4 °F 93% 29.31 in 10.0 mi West 13.8 mph 26.5 mph N/A   Overcast
5:55 PM 37.4 °F 30.3 °F 35.6 °F 93% 29.31 in 10.0 mi West 10.4 mph 24.2 mph N/A Rain Rain
6:15 PM 37.4 °F 29.8 °F 35.6 °F 93% 29.32 in 7.0 mi West 11.5 mph 23.0 mph N/A Rain Light Rain
6:35 PM 35.6 °F 29.2 °F 35.6 °F 100% 29.32 in 10.0 mi West 8.1 mph 16.1 mph N/A   Drizzle
6:55 PM 35.6 °F 27.1 °F 33.8 °F 93% 29.33 in 7.0 mi West 12.7 mph 24.2 mph N/A Rain Light Rain
7:15 PM 35.6 °F 28.0 °F 33.8 °F 93% 29.33 in 10.0 mi West 10.4 mph 26.5 mph N/A   Overcast
7:35 PM 35.6 °F 28.0 °F 33.8 °F 93% 29.34 in 10.0 mi West 10.4 mph 23.0 mph N/A   Overcast
7:55 PM 35.6 °F 28.6 °F 32.0 °F 87% 29.35 in 10.0 mi West 9.2 mph 21.9 mph N/A   Overcast
8:15 PM 35.6 °F 28.6 °F 30.2 °F 81% 29.37 in 10.0 mi West 9.2 mph 25.3 mph N/A   Overcast
8:35 PM 33.8 °F 27.0 °F 30.2 °F 87% 29.37 in 10.0 mi West 8.1 mph 26.5 mph N/A   Overcast
8:55 PM 33.8 °F 25.3 °F 30.2 °F 87% 29.38 in 10.0 mi West 11.5 mph 23.0 mph N/A   Overcast
9:15 PM 33.8 °F 26.4 °F 30.2 °F 87% 29.39 in 10.0 mi West 9.2 mph 17.3 mph N/A   Overcast
9:35 PM 32.0 °F 23.6 °F 32.0 °F 100% 29.40 in 1.8 mi West 10.4 mph 19.6 mph N/A Snow Light Snow
9:55 PM 32.0 °F 23.0 °F 30.2 °F 93% 29.42 in 7.0 mi West 11.5 mph 27.6 mph N/A   Overcast
10:15 PM 32.0 °F 23.0 °F 30.2 °F 93% 29.43 in 7.0 mi WSW 11.5 mph 23.0 mph N/A   Overcast
10:35 PM 32.0 °F 23.0 °F 30.2 °F 93% 29.45 in 4.0 mi WSW 11.5 mph 23.0 mph N/A Snow Light Snow
10:55 PM 32.0 °F 27.5 °F 30.2 °F 93% 29.46 in 2.0 mi West 4.6 mph 19.6 mph N/A Snow Light Snow
11:15 PM 32.0 °F 23.6 °F 30.2 °F 93% 29.46 in 5.0 mi West 10.4 mph 25.3 mph N/A Snow Light Snow
11:35 PM 32.0 °F 23.6 °F 30.2 °F 93% 29.47 in 1.5 mi West 10.4 mph 27.6 mph N/A Snow Light Snow
11:55 PM 30.2 °F 20.8 °F 30.2 °F 100% 29.47 in 1.5 mi West 11.5 mph 23.0 mph N/A Snow Light Snow